Regional Weather Roundup
Issued by NWS

Home | Current Version | Previous Version | Text Only | Print | Product List | Glossary On
Versions: 1 2 3 4 5 6 7 8 9 10 11 12 13 14 15 16 17 18 19 20 21 22 23 24 25 26 27 28 29 30 31 32 33 34 35 36 37 38 39 40 41 42 43 44 45 46 47 48 49 50
000
ASUS43 KLOT 221308
RWRIL

ILLINOIS REGIONAL WEATHER ROUNDUP
NATIONAL WEATHER SERVICE CHICAGO/ROMEOVILLE IL
700 AM CST THU FEB 22 2018

NOTE: "FAIR" INDICATES FEW OR NO CLOUDS BELOW 12,000 FEET WITH NO
SIGNIFICANT WEATHER AND/OR OBSTRUCTIONS TO VISIBILITY.

* THESE STATIONS ARE NOT UNDER NWS QUALITY CONTROL. THEY ALSO MAY NOT
  REPORT WEATHER SUCH AS PRECIPITATION OR FOG.

ILZ001-002-007-009-015-016-024-221400-
NORTHWEST ILLINOIS

CITY           SKY/WX    TMP DP  RH WIND       PRES   REMARKS
MOLINE         CLOUDY    29  21  72 NE10      30.52S WCI  20
STERLING*      CLOUDY    29  24  82 MISG      30.53
SAVANNA*       CLOUDY    28  19  71 NE9       30.56F WCI  19
$$

ILZ003-004-008-010-011-017-018-221400-
NORTH CENTRAL ILLINOIS

CITY           SKY/WX    TMP DP  RH WIND       PRES   REMARKS
ROCKFORD       CLOUDY    29  22  75 NE9       30.57R WCI  20
FREEPORT*      CLOUDY    26  19  77 NE12      30.58R WCI  15
ROCHELLE*      CLOUDY    30  25  83 NE13      30.54R WCI  20
DE KALB*       CLOUDY    30  26  86 NE12      30.54R WCI  21
PERU*          CLOUDY    30  26  83 NE12      30.51F WCI  21
$$

ILZ005-006-012>014-019>023-221400-
NORTHEAST ILLINOIS

CITY           SKY/WX    TMP DP  RH WIND       PRES   REMARKS
CHICAGO-OHARE  CLOUDY    33  27  78 NE14      30.54S WCI  23
CHICAGO-MIDWAY CLOUDY    34  28  79 NE14      30.54R WCI  25
AURORA         CLOUDY    32  27  81 NE13      30.52S WCI  22
LANSING*       CLOUDY    32  30  92 NE10      30.54R WCI  24
JOLIET*        MOCLDY    34  30  85 NE9       30.52F WCI  26
WAUKEGAN       FAIR      31  27  85 NE9       30.56R WCI  23
DUPAGE AIRPORT CLOUDY    31  28  89 NE10      30.53R WCI  22
KANKAKEE*      CLOUDY    32  29  89 NE13      30.51R WCI  23
WHEELING       FAIR      33  28  81 NE9       30.56S WCI  25
MORRIS*        CLOUDY    32  28  86 NE6       30.51S WCI  26
ROMEOVILLE*    MOCLDY    32  28  86 NE12      30.53R WCI  23
NORTHERLY ISL    N/A     33  28  82 NE13        N/A  WCI  24
$$

LMZ740>746-221400-
SOUTHERN LAKE MICHIGAN

STATION/POSITION SKY/WX   TEMP    WIND        PRES    VSBY  WAVE
                          AIR SEA DIR/SP/G                  HT/PER
                          (F)     (DEG/KT/KT) (MB)    (MI)  (FT/S)
HARRISON CRIB              34      40/ 16/ 19   N/A
BURNHAM HARBOR             33      40/ 10/ 16   N/A
CALUMET HARBOR             32      40/ 13/ 15 1033.6R
BURNS HARBOR               32      40/ 16/ 18 1034.2R
MICHIGAN CITY              31      30/ 15/ 16   N/A
$$

ILZ025>027-034>036-040-047-049-050-058-095>099-221400-
WEST-CENTRAL ILLINOIS

CITY           SKY/WX    TMP DP  RH WIND       PRES   REMARKS
QUINCY         CLOUDY    29  27  92 NE10      30.42R WCI  20
GALESBURG*     CLOUDY    30  27  86 NE14      30.48F WCI  20
MACOMB*        MIX PCPN  30  28  94 NE15      30.48S WCI  19
JACKSONVILLE*  CLOUDY    31  30  94 NE9       30.42F WCI  23
PITTSFIELD*    CLOUDY    31  30  96 NE7       30.43R FOG     WCI  24
$$

ILZ028>032-037-038-041>044-048-051>054-059>061-221400-
CENTRAL ILLINOIS

CITY           SKY/WX    TMP DP  RH WIND       PRES   REMARKS
PONTIAC        CLOUDY    32  32  99 NE9       30.50R WCI  24
BLOOMINGTON    FRZ RAIN  32  30  92 NE20      30.45S FOG     WCI  20
DECATUR        CLOUDY    34  34 100 NE15      30.41S WCI  24
PEORIA         CLOUDY    31  28  89 NE14      30.46F WCI  21
LACON*         MIX PCPN  31  28  88 NE9       30.49F WCI  23
LINCOLN*       DRIZZLE   33  33  99 NE8       30.44S WCI  26
SPRINGFIELD    LGT RAIN  34  32  92 NE12      30.42F WCI  25
TAYLORVILLE    CLOUDY    34  33  98 NE9       30.42R FOG     WCI  26
$$

ILZ033-039-045-046-055>057-062-063-221400-
EAST-CENTRAL ILLINOIS

CITY           SKY/WX    TMP DP  RH WIND       PRES   REMARKS
CHAMPAIGN      CLOUDY    35  34  96 NE22      30.41S WCI  23
DANVILLE*      CLOUDY    35  34  96 NE15      30.41F WCI  25
RANTOUL*       CLOUDY    35  35  99 NE14      30.44R FOG     WCI  26
MATTOON        LGT RAIN  37  35  92 NE14      30.38S FOG     WCI  28
PARIS*         CLOUDY    36  36  98 NE14G23   30.42F FOG     WCI  27
$$

ILZ079-100>102-221400-
SOUTHWEST ILLINOIS

CITY           SKY/WX    TMP DP  RH WIND       PRES   REMARKS
ALTON          CLOUDY    32  32 100 N6        30.39S FOG     WCI  26
BELLEVILLE     LGT RAIN  35  33  92 N7        30.37S FOG     WCI  29
CAHOKIA*       LGT RAIN  35  33  92 N7        30.40  FOG     WCI  29
SPARTA*        DRIZZLE   34  34 100 N5        30.38R WCI  30
$$

ILZ064>066-069>071-074>076-080>082-084>086-088>090-092>094-221400-
SOUTH-CENTRAL ILLINOIS

CITY           SKY/WX    TMP DP  RH WIND       PRES   REMARKS
CARBONDALE     CLOUDY    38  38 100 N6        30.35R WCI  33
CAIRO*         CLOUDY    39  39  97 N7        30.33R WCI  34
EFFINGHAM*     CLOUDY    37  37 100 N6        30.39S FOG     WCI  33
MARION         CLOUDY    39  37  93 E6        30.34F WCI  35
MT. VERNON     LGT RAIN  38  37  97 NE9       30.35R FOG     WCI  31
CENTRALIA*     DRIZZLE   37  37  98 NE6       30.36R WCI  32
SALEM*         RAIN      38  36  92 NE9G16    30.36S WCI  31
METROPOLIS*    CLOUDY    42  40  96 N6        30.33S
$$

ILZ067-068-072-073-078-083-087-091-221400-
SOUTHEAST ILLINOIS

CITY           SKY/WX    TMP DP  RH WIND       PRES   REMARKS
LAWRENCEVILLE  LGT RAIN  42  41  96 NE16      30.37F FOG
FLORA*         CLOUDY    39  38  96 NE10      30.37R FOG     WCI  33
FAIRFIELD*     DRIZZLE   39  39 100 CALM      30.34R
HARRISBURG*    CLOUDY    40  40  99 NE8       30.34S
ROBINSON*      CLOUDY    39  39 100 NE12      30.40S WCI  32
CARMI*         CLOUDY    41  40  98 N10       30.34R
$$

ABBREVIATIONS USED IN REMARKS
   TC - TEMPERATURE IN CELSIUS
  WCI - WIND CHILL INDEX
   HX - HEAT INDEX
  VSB - VISIBILITY
$$





USA.gov is the U.S. government's official web portal to all federal, state and local government web resources and services.